Location: *
(46.1200°N, 11.2700°E)
Time: 07:20:00
(UTC+00:00)

USA 305 - Pass Details

Date: 02 March 2021
Orbit: 567 x 574 km, 54.0° (Epoch: 18 April)

Event Time Altitude Azimuth Distance (km) Brightness Sun altitude
Rises 18:03:55 0° 274° (W) 2,778 8.6 -11.4°
Reaches altitude 10° 18:06:23 10° 285° (WNW) 1,880 6.9 -11.8°
Maximum altitude 18:10:13 31° 349° (N) 1,014 4.3 -12.5°
Enters shadow 18:13:42 12° 50° (NE) 1,760 5.0 -13.1°
